www.pogodaiklimat.ru

Погода и климат >> Архив погоды >> Россия >> Якутия >> Иэма


ПОГОДА в Иэме

  • Прогноз погоды в Иэме
  • Монитор погоды в Иэме

АРХИВ ПОГОДЫ в Иэме

Время (UTC), дата Ветер
(напр.,м/с)
 
Видим.   Явления Облачность Т
(С)
Тd
(С)
f
(%)
Тe
(С)
Тes
(С)
Комфортность P
(гПа)
Po
(гПа)
Тmin
(С)
Tmax
(С)
R
(мм)
R24
(мм)
S
(см)
00 19.08 ЮЗ 2 2000 м мгла 9/3 1000 м
[Sc Ac trans Ci fib]
+13.2 +11.3 88 +12 +14 1017.9 940.0
03 19.08 Ю 1 20 км дым 8/0
[Ac As Cs]
+19.1 +9.0 52 +21 +27 комфорт 1015.5 939.3
06 19.08 Ю 4 50 км 6/0
[Ac trans Cs]
+21.9 +5.8 35 +22 +25 комфорт 1014.3 938.8
09 19.08 Ю 4 20 км дым 9/0
[Ac As Cs]
+19.5 +7.9 47 +20 +21 1015.1 939.0 +22.3
12 19.08 Ю 3 20 км дым 10/6 1000 м
[Sc Ac As]
+16.3 +6.0 50 +16 +16 1017.8 940.6
15 19.08 Ю 2 10 км дым 10/8 600 м
[Sc Ac As]
+14.0 +5.8 58 +14 +14 1019.5 941.6
18 19.08 СВ 2 10 км дым 10/3 600 м
[Sc Ac As Cc]
+8.4 +4.8 78 +7 +7 1021.5 942.0
21 19.08 штиль 0 20 км дым 10/6 1000 м
[Sc Ac As Ci ing]
+7.6 +4.1 78 +7 +7 1021.9 942.1 +6.4
00 20.08 штиль 0 20 км дым 10/0
[Ac und]
+12.4 +6.5 67 +12 +14 1020.3 941.9
03 20.08 СЗ 1 50 км 9/4 1000 м
[Sc Ac lent Cc]
+16.3 +6.3 52 +17 +20 1018.1 940.9
06 20.08 штиль 0 50 км 8/6 600 м
[Sc diur, vesp Ac lent Cc]
+19.0 +6.4 44 +19 +21 1016.4 940.0
09 20.08 Ю 1 50 км 10/8 600 м
[Cb cap Ac As]
+17.7 +9.3 58 +19 +19 1017.0 940.4 +19.8
12 20.08 В 1 50 км 10/4 600 м
[Sc Ac As]
+14.3 +7.7 64 +15 +15 1018.7 941.0
15 20.08 штиль 0 50 км в посл. час ливневой дождь 10/6 600 м
[Cb cap Ac As]
+12.3 +8.3 77 +12 +12 1020.1 941.7
18 20.08 В 2 50 км {ливн. осадки} 10/0
[Ac As]
+12.3 +6.7 69 +11 +11 1020.4 942.0
21 20.08 ЮВ 2 50 км 10/0
[Ac As]
+13.3 +7.1 66 +13 +13 1020.0 941.9 +12.1 0.0
00 21.08 Ю 2 50 км 9/4 1000 м
[Sc Ac As Cs]
+14.7 +7.7 63 +14 +16 1019.8 942.1
03 21.08 Ю 3 50 км 8/3 1000 м
[Sc Ac As Cc]
+17.2 +6.5 49 +17 +20 1018.6 941.6
06 21.08 СЗ 1 50 км 8/3 1000 м
[Cu hum Ac trans Cc]
+18.7 +8.7 52 +20 +23 1017.2 940.7
09 21.08 штиль 0 50 км 6/3 600 м
[Cb cap Ac lent Cs]
+18.6 +9.8 57 +19 +20 1016.8 940.4 +19.5
12 21.08 штиль 0 50 км 6/4 600 м
[Cb cap Ac trans]
+14.5 +9.5 72 +14 +14 1017.8 940.3
15 21.08 штиль 0 50 км 9/4 1000 м
[Sc Ac As]
+10.9 +7.8 81 +10 +10 1018.8 940.2
18 21.08 штиль 0 50 км 9/8 1000 м
[Sc Ac As]
+9.6 +8.2 91 +9 +9 1019.2 940.3
21 21.08 штиль 0 50 км 3/0
[Ac lent Cs]
+8.2 +6.9 92 +7 +8 1020.0 940.5 +7.3
00 22.08 ЮЗ 1 50 км ясно +13.8 +8.9 72 +14 +20 1017.6 939.9
03 22.08 ЮЗ 1 50 км 4/3 600 м
[Cu med, cong Cs]
+19.5 +8.9 50 +22 +27 комфорт 1015.0 938.9
06 22.08 З 2 50 км 4/3 600 м
[Cu med, cong Cs]
+21.8 +10.8 50 +24 +27 комфорт 1012.2 936.9
09 22.08 ЮВ 7 50 км в посл. час ливневой дождь 9/8 600 м
[Cb cap Ac lent]
+18.3 +10.7 61 +18 +18 1012.9 936.7 +22.6 0.0
12 22.08 С 2 50 км {ливн. осадки} 4/3 600 м
[Sc Ac lent Cs]
+15.2 +10.7 74 +15 +15 1013.4 936.4
15 22.08 штиль 0 50 км 3/0
[Ac trans Cs]
+8.8 +8.0 95 +8 +8 1015.4 936.5
18 22.08 С 1 50 км 3/0
[Ac lent Ci fib]
+5.4 +4.7 95 +4 +4 1016.8 936.8
21 22.08 С 1 50 км 3/0
[Cc]
+5.1 +5.1 100 +4 +4 1017.1 937.0 +4.8
00 23.08 штиль 0 50 км 6/0
[Ac trans Cs]
+11.8 +9.6 86 +11 +16 1015.5 937.4
03 23.08 Ю 1 10 км дым 9/4 600 м
[Cb cap Ac trans Cs]
+15.7 +10.8 73 +16 +19 1013.5 936.6
06 23.08 СЗ 1 20 км дым 6/0
[Ac trans Cc]
+19.5 +8.6 49 +21 +25 комфорт 1010.6 934.8
09 23.08 СЗ 3 20 км дым 8/5 600 м
[Cb cap Ac As Cs]
+18.6 +10.7 60 +19 +19 1009.6 933.7 +20.0
12 23.08 ЮВ 3 20 км дым 10/6 600 м
[Cb cap Ac und]
+16.2 +11.2 72 +16 +16 1011.1 934.5
15 23.08 штиль 0 20 км дым {ливн. осадки} 8/4 1000 м
[Sc diur, vesp Ac trans Cs]
+9.8 +8.6 92 +9 +9 1012.7 934.3
18 23.08 штиль 0 20 км дым {ливн. осадки} 6/4 600 м
[Cb cap Ci fib]
+8.4 +7.3 93 +7 +7 1012.9 934.1
21 23.08 СВ 1 50 км 8/6 600 м
[Sc Ac lent Cc]
+8.0 +6.3 89 +7 +7 1013.0 934.1 +7.2 0.0
00 24.08 штиль 0 10 км дымка 10/8 600 м
[Sc Ac As]
+13.4 +8.4 72 +13 +13 1011.1 933.7
03 24.08 Ю 1 20 км дым 9/4 600 м
[Cu Sc Ac lent Cs]
+18.0 +6.8 48 +19 +22 1008.4 932.4
06 24.08 Ю 2 50 км {ливн. осадки} 9/6 600 м
[Cb cap Ac lent Ci ing]
+18.4 +8.6 53 +19 +20 1007.0 931.2
09 24.08 Ю 1 50 км 9/9 600 м
[Cb cap Ac As Cc]
+15.2 +10.5 74 +16 +16 1007.6 931.0 +18.7 0.3
12 24.08 штиль 0 50 км 9/9 600 м
[Sc Ac As]
+12.5 +9.1 80 +12 +12 1008.0 930.7
15 24.08 Ю 1 50 км 10/10 600 м
[Sc]
+12.3 +9.8 85 +12 +12 1007.7 930.4
18 24.08 штиль 0 20 км слаб. ливневой дождь 10/9 600 м
[Cb cap Ac As]
+9.3 +8.1 92 +8 +8 1008.2 930.0
21 24.08 СВ 1 20 км слаб. дождь 10/10 600 м
[Sc As op]
+10.4 +9.6 95 +10 +10 1008.1 930.2 +9.0 1
00 25.08 штиль 0 20 км слаб. дождь 10/6 600 м
[Sc Ac As]
+11.8 +10.2 90 1007.4 929.1
03 25.08 Ю 3 20 км слаб. дождь 10/8 600 м
[Sc Ac As]
+12.0 +10.3 89 +10 +11 1007.1 929.7
06 25.08 ЮВ 1 50 км {ливн. осадки, дождь} 9/5 600 м
[Cb cap Ac lent]
+12.4 +10.3 87 +12 +13 1006.4 929.2
09 25.08 штиль 0 50 км {ливн. осадки} 8/6 600 м
[Cb cap Ac As]
+13.4 +10.1 80 +13 +13 1005.9 929.0 +13.4 3
12 25.08 СВ 1 50 км {ливн. осадки} 10/8 600 м
[Cb cap Ac As]
+10.5 +9.7 95 +10 +10 1007.4 929.6
15 25.08 В 1 50 км 9/8 600 м
[Sc Ac As]
+8.6 +8.2 97 +8 +8 1008.0 929.6

 

Местоположение метеостанции Иэма (Якутия, Россия): широта 65.30 долгота 135.80 высота над уровнем моря 675 м.

В архиве по умолчанию представлена погода в Иэме за последнюю неделю. Архивные данные за месяц целиком и за предыдущие месяцы, начиная с января 2011 года, Вы можете получить, выбрав интересующий диапазон дат из раскрывающегося списка и нажав кнопку "Ввод!".


*Определитесь, кто Вы:
робот инопланетянин человек

Внимание! Время в таблицах - всемирное. Для получения местного времени необходимо прибавить поправку, которая равна 9 ч.

Смотрите также архив погоды в соседних городах и на ближайших метеорологических станциях:

Погода в Томпо (Якутия, Россия) (150 км)
Погода в Усть-Чарках (Якутия, Россия) (171 км)
Погода в Екюччю (Якутия, Россия) (250 км)
Погода в Батагае (Якутия, Россия) (267 км)
Погода в Себян-Кюеле (Якутия, Россия) (269 км)
Погода в Верхоянске (Якутия, Россия) (274 км)
Погода в Крест-Хальджае (Якутия, Россия) (284 км)
Погода в Теплом Ключе (Якутия, Россия) (284 км)
Погода в Верхоянском Перевозе (Якутия, Россия) (286 км)
Погода в Восточной (Якутия, Россия) (294 км)

Пояснения к столбцам:

Ветер - указаны скорость ветра в м/с - средняя за 10 мин, порывы в срок и между сроками (в фигурных скобках) и направление, откуда дует ветер: С - северный, СВ - северо-восточный, В - восточный, ЮВ - юго-восточный, Ю - южный, ЮЗ - юго-западный, З - западный, СЗ - северо-западный.
Видимость - горизонтальная дальность видимости в метрах или километрах. При видимости от 1 до 10 км при отсутствии осадков обычно наблюдается дымка, при ухудшении видимости до 1 км и менее - туман. В сухую погоду видимость может ухудшаться дымом, пылью или мглою.
Явления - указаны атмосферные явления, наблюдавшиеся в срок или в последний час перед сроком; фигурными скобками обозначены явления, наблюдавшиеся между сроками (за 1-3 часа до срока); квадратными скобками обозначены град или гололедные отложения с указанием их диаметра в мм.
Облачность - указаны через наклонную черту общая и нижняя облачность в баллах и высота нижней границы облаков в метрах; квадратными скобками обозначены формы облаков: Ci - перистые, Cs - перисто-слоистые, Cc - перисто-кучевые, Ac - высококучевые, As - высокослоистые, Sc - слоисто-кучевые, Ns - слоисто-дождевые, Cu - кучевые, Cb - кучево-дождевые. Подробнее классификацию облаков см. в Атласе облаков (PDF).
T - Температура воздуха - температура, измеренная на высоте 2 м над землей.
Td - Температура точки росы - температура, при понижении до которой содержащийся в воздухе водяной пар достигнет насыщения.
f - Относительная влажность воздуха - влажноcть воздуха, измеренная на высоте 2 м над землей.
Te - Эффективная температура - температура, которую ощущает одетый по сезону человек в тени. Характеристика душности погоды. При расчете учитывается влияние влажности воздуха и скорости ветра на теплоощущения человека.
Tes - Эффективная температура на солнце - температура, которую ощущает человек, с поправкой на солнечный нагрев. Характеристика знойности погоды. Зависит от высоты солнца над горизонтом, облачности и скорости ветра. Ночью, в пасмурную погоду, а также при ветре 12 м/с и более поправка равна нулю.
P - Атмосферное давление - приведенное к уровню моря атмосферное давление.
Po - Атмосферное давление - измеренное на уровне метеостанции атмосферное давление.
Tmin - Минимальная температура - минимум температуры воздуха на высоте 2 м над землей.
Tmax - Максимальная температура - максимум температуры воздуха на высоте 2 м над землей.
R - Количество осадков - Количество выпавших осадков за период времени, мм. При наведении курсора мыши на число - период времени, за который выпало указанное количество осадков.
R24 - Количество осадков - Количество выпавших осадков за 24 часа, мм.
S - Снежный покров - Высота снежного покрова, см. При наведении курсора мыши на число - состояние снежного покрова и степень покрытия местности в баллах.